FW8940 Weather Reports


time (UTC)temp
C
wind
direction
speed
KPH
gust
KPH
rain 1hr
cm
rain 24hr
cm
rain mn
cm
humidity
%
barometer
mb
20260906224607 30 9 3.2 11.3 0.00 0.00 0.00 33 1018.0
20260906223106 31 45 3.2 11.3 0.00 0.00 0.00 32 1018.0
20260906221605 32 5 6.4 17.7 0.00 0.00 0.00 31 1018.2
20260906220107 33 247 3.2 9.7 0.00 0.00 0.00 29 1018.4
20260906214612 32 355 4.8 17.7 0.00 0.00 0.00 30 1018.7
20260906213104 32 5 6.4 16.1 0.00 0.00 0.00 31 1018.9
20260906211606 32 315 3.2 16.1 0.00 0.00 0.00 31 1019.1
20260906210117 31 304 3.2 14.5 0.00 0.00 0.00 32 1019.4
20260906204626 32 13 6.4 17.7 0.00 0.00 0.00 31 1019.7
20260906203103 31 25 4.8 16.1 0.00 0.00 0.00 32 1019.9
20260906201604 31 11 4.8 17.7 0.00 0.00 0.00 33 1020.0
20260906200106 30 47 8.0 20.9 0.00 0.00 0.00 34 1020.2
20260906194616 30 53 6.4 19.3 0.00 0.00 0.00 34 1020.3
20260906193124 30 5 4.8 14.5 0.00 0.00 0.00 35 1020.5
20260906191609 30 39 3.2 16.1 0.00 0.00 0.00 35 1020.7
20260906190105 30 0 3.2 16.1 0.00 0.00 0.00 36 1020.9
20260906184606 28 355 6.4 14.5 0.00 0.00 0.00 37 1021.2
20260906183106 28 286 0.0 17.7 0.00 0.00 0.00 40 1021.4
20260906181604 28 344 3.2 12.9 0.00 0.00 0.00 41 1021.7
20260906180135 27 360 3.2 12.9 0.00 0.00 0.00 42 1021.9
20260906174606 27 346 1.6 12.9 0.00 0.00 0.00 43 1022.1
20260906173105 26 355 4.8 14.5 0.00 0.00 0.00 47 1022.4
20260906171609 25 355 1.6 8.0 0.00 0.00 0.00 50 1022.7
20260906170107 23 309 1.6 8.0 0.00 0.00 0.00 52 1022.8
20260906164605 23 91 1.6 9.7 0.00 0.00 0.00 54 1023.0
20260906163104 23 322 4.8 12.9 0.00 0.00 0.00 55 1022.9
20260906161608 22 0 1.6 14.5 0.00 0.00 0.00 55 1022.8
20260906160109 23 343 3.2 8.0 0.00 0.00 0.00 55 1022.9
20260906154609 22 0 1.6 9.7 0.00 0.00 0.00 53 1023.0
20260906153118 23 9 1.6 8.0 0.00 0.00 0.00 53 1022.8
20260906151608 22 349 3.2 8.0 0.00 0.00 0.00 53 1023.0
20260906150103 22 0 0.0 4.8 0.00 0.00 0.00 52 1023.0
20260906144606 22 12 1.6 8.0 0.00 0.00 0.00 52 1023.0
20260906143116 22 265 0.0 1.6 0.00 0.00 0.00 53 1023.1
20260906141609 22 0 0.0 4.8 0.00 0.00 0.00 54 1023.0
20260906140109 21 0 1.6 4.8 0.00 0.00 0.00 57 1022.9
20260906134618 19 0 0.0 6.4 0.00 0.00 0.00 66 1023.0
20260906133110 18 209 0.0 9.7 0.00 0.00 0.00 67 1022.9
20260906131606 17 0 0.0 6.4 0.00 0.00 0.00 69 1022.6
20260906124615 16 0 0.0 0.0 0.00 0.00 0.00 65 1022.4
20260906123107 16 0 0.0 6.4 0.00 0.00 0.00 60 1022.4
20260906121610 17 195 3.2 8.0 0.00 0.00 0.00 62 1022.4
20260906120119 17 162 0.0 9.7 0.00 0.00 0.00 67 1022.5
20260906114610 17 161 3.2 6.4 0.00 0.00 0.00 69 1022.6
20260906113104 17 178 1.6 3.2 0.00 0.00 0.00 69 1022.7
20260906111607 17 209 1.6 8.0 0.00 0.00 0.00 64 1022.4
20260906110115 18 279 3.2 12.9 0.00 0.00 0.00 58 1022.2
20260906104604 18 180 3.2 8.0 0.00 0.00 0.00 55 1022.1
20260906103112 18 180 1.6 8.0 0.00 0.00 0.00 53 1022.0
20260906101605 18 210 0.0 8.0 0.00 0.00 0.00 52 1022.1
20260906100106 19 193 1.6 4.8 0.00 0.00 0.00 51 1022.0
20260906094608 19 201 1.6 6.4 0.00 0.00 0.00 51 1022.1
20260906093105 20 250 1.6 6.4 0.00 0.00 0.00 49 1022.2
20260906091602 21 0 0.0 4.8 0.00 0.00 0.00 46 1021.9
20260906090118 21 0 0.0 4.8 0.00 0.00 0.00 46 1021.8
20260906084618 21 0 0.0 6.4 0.00 0.00 0.00 45 1021.8
20260906083114 21 180 1.6 8.0 0.00 0.00 0.00 45 1021.7
20260906081601 21 153 3.2 14.5 0.00 0.00 0.00 45 1021.6
20260906080127 21 196 6.4 17.7 0.00 0.00 0.00 45 1021.7
20260906074610 21 206 6.4 19.3 0.00 0.00 0.00 45 1021.5
20260906073115 22 183 6.4 19.3 0.00 0.00 0.00 45 1021.3
20260906071602 22 184 8.0 14.5 0.00 0.00 0.00 43 1021.4
20260906070108 22 205 4.8 16.1 0.00 0.00 0.00 42 1021.4
20260906064607 22 200 4.8 16.1 0.00 0.00 0.00 44 1021.4
20260906063105 22 144 3.2 9.7 0.00 0.00 0.00 44 1021.8
20260906061605 22 232 4.8 16.1 0.00 0.00 0.00 43 1021.9
20260906060104 22 142 8.0 19.3 0.00 0.00 0.00 45 1021.9
20260906054603 21 184 8.0 17.7 0.00 0.00 0.00 48 1022.0
20260906053104 21 138 4.8 16.1 0.00 0.00 0.00 49 1022.3
20260906051607 22 171 3.2 22.5 0.00 0.00 0.00 46 1022.3
20260906050110 23 177 12.9 24.1 0.00 0.00 0.00 42 1022.5
20260906044602 23 128 8.0 22.5 0.00 0.00 0.00 40 1022.7
20260906043104 25 188 4.8 17.7 0.00 0.00 0.00 34 1022.9
20260906041605 25 132 0.0 6.4 0.00 0.00 0.00 33 1022.6
20260906040104 25 190 4.8 17.7 0.00 0.00 0.00 32 1021.4
20260906034639 25 157 4.8 14.5 0.00 0.00 0.00 31 1021.1
20260906033103 25 171 4.8 9.7 0.00 0.00 0.00 31 1020.9
20260906031601 25 221 3.2 11.3 0.00 0.00 0.00 32 1021.0
20260906024603 26 185 3.2 12.9 0.00 0.00 0.00 29 1020.6
20260906023102 26 180 4.8 11.3 0.00 0.00 0.00 29 1020.3
20260906021611 26 180 3.2 12.9 0.00 0.00 0.00 29 1020.3
20260906020107 27 188 3.2 11.3 0.00 0.00 0.00 28 1020.3
20260906014603 27 198 3.2 11.3 0.00 0.00 0.00 28 1020.2
20260906013108 27 202 1.6 8.0 0.00 0.00 0.00 28 1020.0
20260906011603 27 254 1.6 6.4 0.00 0.00 0.00 27 1020.1
20260906010107 28 0 0.0 4.8 0.00 0.00 0.00 27 1019.9
20260906004608 30 237 0.0 3.2 0.00 0.00 0.00 25 1020.0
20260906003108 31 0 0.0 3.2 0.00 0.00 0.00 23 1020.1
20260906001605 32 294 0.0 4.8 0.00 0.00 0.00 21 1020.0
20260906000112 33 0 0.0 0.0 0.00 0.00 0.00 20 1019.9
20260905234621 34 254 1.6 4.8 0.00 0.00 0.00 18 1019.9
20260905233104 33 207 3.2 6.4 0.00 0.00 0.00 20 1019.9
20260905231607 32 0 3.2 9.7 0.00 0.00 0.00 21 1019.9
20260905230106 31 13 3.2 9.7 0.00 0.00 0.00 22 1019.9